Location: *
(50.9167°S, 179.4000°W)
Time: 20:11:31
(UTC+00:00)

Cosmos 2237 Rocket - Pass Details

Date: 03 March 2024
Orbit: 833 x 851 km, 71.0° (Epoch: 16 April)

Event Time Altitude Azimuth Distance (km) Brightness Sun altitude
Exits shadow 12:54:27 51° 213° (SSW) 1,081 2.8 -31.8°
Drops below altitude 10° 12:59:32 10° 156° (SSE) 2,503 5.5 -31.6°
Sets 13:02:05 0° 151° (SSE) 3,441 6.4 -31.5°
